Preview of NWS' New Version of Forecast
This preview is not operational and should not be used for support decisions.

Regional Weather Roundup (RWR)

Issued by Gray - Portland, ME (GYX)

                            
000
ASUS41 KGYX 180510
RWRGYX
WEATHER ROUNDUP FOR MAINE AND NEW HAMPSHIRE
NATIONAL WEATHER SERVICE GRAY ME
100 AM EDT SUN AUG 18 2019

MEZ002-005-006-010-012-015-018-020-021-024-026-027-029-180600-
MAINE
  
CITY           SKY/WX    TMP DP  RH WIND       PRES   REMARKS
PORTLAND       CLOUDY    67  65  93 S6        30.01S                  
SANFORD        LGT RAIN  67  66  97 CALM      30.01R                  
BAR HARBOR     CLOUDY    61  61 100 E3        30.04F FOG              
WISCASSET      CLOUDY    65  64  97 VRB5      30.02F FOG              
ROCKLAND       FOG       63  63 100 SE3       30.02F VSB 1            
FRYEBURG       CLOUDY    66  65  96 CALM      30.02S                  
LEWISTONAUBURN CLOUDY    64  64 100 S5        30.02F FOG              
AUGUSTA        FOG       64  64 100 S7        30.02S VSB 1/4          
WATERVILLE     LGT RAIN  64  64 100 CALM      29.99F VSB 1/2          
BANGOR         CLOUDY    65  63  93 SE5       30.03F                  
GREENVILLE       N/A     62  61  96 VRB5      30.02S                  
MILLINOCKET    CLOUDY    64  61  90 S3        30.03F                  
HOULTON        CLOUDY    64  61  90 S3        30.01F                  
PRESQUE ISLE   CLOUDY    65  62  90 S3        30.02F                  
FRENCHVILLE    CLOUDY    63  60  90 SE6       30.01S                  
CARIBOU        CLOUDY    65  62  90 S5        30.01S                  
$$

NHZ002-005-008-009-011-012-014-180600-
NEW HAMPSHIRE
  
CITY           SKY/WX    TMP DP  RH WIND       PRES   REMARKS
PORTSMOUTH     CLOUDY    67  67  99 SE6       29.99S                  
ROCHESTER      CLOUDY    67  65  93 S3        30.00S                  
NASHUA         FAIR      68  68 100 SE3       30.01S                  
MANCHESTER     MOCLDY    69  67  93 CALM      29.99S                  
CONCORD        CLOUDY    67  66  97 CALM      30.01S                  
LACONIA        CLOUDY    66  66 100 SW3       30.03R                  
PLYMOUTH       CLOUDY    65  64  95 CALM      30.02R                  
BERLIN         MOCLDY    66  63  90 CALM      30.01S                  
WHITEFIELD     MOCLDY    65  63  93 S3        30.01S                  
JAFFREY        FAIR      66  63  90 CALM      30.04S                  
KEENE          CLOUDY    64  64 100 CALM      30.02F FOG              
LEBANON        MOCLDY    67  63  87 SE5       30.00S                  
MT WASHINGTON  FOG       50  50 100 SW20        N/A  VSB 1/8          
$$

VTZ005-007-008-180600-
VERMONT
  
CITY           SKY/WX    TMP DP  RH WIND       PRES   REMARKS
ST JOHNSBURY     N/A     64  64 100 MISG      29.98S                  
MONTPELIER     CLOUDY    66  64  93 S6        30.04S                  
BURLINGTON     FAIR      66  63  90 S5        29.98R                  
$$

MAZ007-012-024-CTZ003-RIZ002-NYZ038-NYZ072-180600-
SOUTHERN NEW ENGLAND AND NY
  
CITY           SKY/WX    TMP DP  RH WIND       PRES   REMARKS
BOSTON         LGT RAIN  71  66  84 NE5       30.01S                  
WORCESTER      CLOUDY    68  68 100 W3        30.04S                  
NANTUCKET      FOG       68  67  96 SE6       30.00S VSB 1/4          
PROVIDENCE     FOG       72  72 100 S5        30.01S VSB 1/4          
HARTFORD       MOCLDY    68  66  93 CALM      30.00F                  
ALBANY         CLOUDY    68  65  90 S3        30.02R                  
NEW YORK CITY  CLOUDY    77  73  87 SW3       29.98R                  
$$

ANZ081-ANZ082-ANZ150-NHZ014-MEZ023>029-180600-
COASTAL MARINE OBSERVATIONS
  
STATION/POSITION TIME  TEMP    WIND        PRES    WAVE
                       AIR SEA DIR/SP/G            HT/PER
                 (UTC) (F)     (DEG/KT/KT) (MB)    (FT/S)
MATINICUS ROCK   0450   61                 1016.4F
ISLE OF SHOALS   0400   66     140/ 12/ 13 1015.3F
JEFFREYS LEDGE   0438      68                N/A     3/ 7
CASHES LEDGE BUO 0450   65 65  130/  6/  8 1016.6F   3/ 7
GEORGES BANK BUO 0450   72 70  120/  8/ 10 1016.8S   3/ 6
$$

.............KEY..............
   WCI - WIND CHILL
   TC  - TEMPERATURE IN CELSIUS
   VSB - VISIBILITY IN MILES
   HX  - HEAT INDEX
   FAIR- INDICATES FEW OR NO CLOUDS BELOW 12,000 FT, WITH NO 
         SIGNIFICANT WEATHER AND/OR OBSTRUCTIONS TO VISIBILITY.